Weather Roundup
Issued by NWS Springfield, MO

Home | Current Version | Previous Version | Text Only | Print | Product List | Glossary On
Versions: 1 2 3 4 5 6 7 8 9 10 11 12 13 14 15 16 17 18 19 20 21 22 23 24 25 26 27 28 29 30 31 32 33 34 35 36 37 38 39 40 41 42 43 44 45 46 47 48 49 50
000
NZUS99 KSGF 292107
HRRSGF

HOURLY WEATHER
NATIONAL WEATHER SERVICE SPRINGFIELD MO
400 PM CDT FRI MAY 29 2015

......SGF CWA......

CITY           SKY/WX    TMP DP  RH WIND       PRES   REMARKS
SPRINGFIELD    RAIN      73  67  81 NE7       29.98F
JOPLIN         RAIN      68  67  96 NW12      29.99R FOG
WEST PLAINS    MOSUNNY   78  68  71 N7G16     29.99F
ROLLA          PTSUNNY   74  66  76 CALM      30.00F
OSAGE BEACH    CLOUDY    75  63  64 E3        30.00F
BRANSON        PTSUNNY   73  70  88 CALM      29.98F

......SURROUNDING SGF CWA......

CITY           SKY/WX    TMP DP  RH WIND       PRES   REMARKS
CHANUTE        LGT RAIN  69  67  93 SE10      29.96F
PARSONS        RAIN      69  68  96 SE3       29.97F
COFFEYVILLE    LGT RAIN  68  67  96 E8        29.94F
EMPORIA        CLOUDY    72  65  78 S10       29.96F
GROVE OK       TSTM      68  68 100 NW15      29.98R
ROGERS AR      PTSUNNY   79  66  64 SE12      29.94F
SILOAM SPRINGS CLOUDY    73  64  73 S8        29.95F
HARRISON AR    CLOUDY    81  66  60 SE15      29.97F
NEAR YELLVILLE   N/A     82  68  61 SE5       29.94F

......KANSAS AND MISSOURI......

CITY           SKY/WX    TMP DP  RH WIND       PRES   REMARKS
KANSAS CTY INT LGT RAIN  68  66  93 SW7       29.96F
DOWNTOWN KC    LGT RAIN  70  65  84 S12       29.95F
COLUMBIA       CLOUDY    73  66  78 W6        30.01S
SEDALIA        CLOUDY    74  65  73 S6        30.00F
ST JOSEPH      CLOUDY    70  66  87 SW7       29.95F
ST LOUIS       PTSUNNY   83  65  54 SW13      29.98F
SPIRIT OF STL  PTSUNNY   82  70  66 W8        29.97F
KIRKSVILLE     CLOUDY    74  66  76 SW8       29.98F
WICHITA        CLOUDY    78  62  57 SE7       29.95F
TOPEKA         CLOUDY    71  66  84 S8        29.96F
OLATHE         LGT RAIN  69  67  93 S9        29.98F

......TENNESSEE......

CITY           SKY/WX    TMP DP  RH WIND       PRES   REMARKS
MEMPHIS        MOSUNNY   87  69  54 S13       30.02F HX  91
NASHVILLE      MOSUNNY   84  66  54 S8        30.09F

......ARKANSAS.......

CITY           SKY/WX    TMP DP  RH WIND       PRES   REMARKS
FAYETTEVILLE   LGT RAIN  77  68  73 S8        29.95F
FT SMITH       TSTM      72  69  90 S16       29.94R VSB 3/4
LITTLE ROCK    PTSUNNY   86  67  52 S12       29.94F

......OKLAHOMA.......

CITY           SKY/WX    TMP DP  RH WIND       PRES   REMARKS
TULSA          LGT RAIN  68  66  93 CALM      29.96R
PONCA CITY     CLOUDY    76  64  66 CALM      29.94S
MCALESTER      CLOUDY    75  71  87 N9        29.91F
OKLAHOMA CITY  CLOUDY    78  61  55 N8        29.94S

......IOWA............

CITY           SKY/WX    TMP DP  RH WIND       PRES   REMARKS
DES MOINES     CLOUDY    72  63  73 SW15      29.91F
QUAD CITIES    PTSUNNY   81  65  58 SW17      29.91F

......ILLINOIS........

CITY           SKY/WX    TMP DP  RH WIND       PRES   REMARKS
QUINCY         CLOUDY    76  64  66 SW12      29.97F
CHICAGO        PTSUNNY   78  64  61 S22G28    29.91F



USA.gov is the U.S. government's official web portal to all federal, state and local government web resources and services.